Location: Newark
(7.1028°S, 35.3258°W)
Time: 14:54:52
(UTC+00:00)

Vanguard 3 - Pass Details

Date: 20 February 2020
Orbit: 508 x 3263 km, 33.4° (Epoch: 05 April)

Event Time Altitude Azimuth Distance (km) Brightness Sun altitude
Rises 21:02:52 0° 303° (WNW) 6,705 12.6 -5.4°
Reaches altitude 10° 21:06:59 10° 303° (WNW) 5,898 12.3 -6.4°
Maximum altitude 21:26:51 82° 216° (SW) 3,229 10.2 -11.2°
Drops below altitude 10° 21:44:11 10° 128° (SE) 5,251 10.9 -15.4°
Sets 21:47:38 0° 127° (SE) 5,974 11.2 -16.3°
